Location: Wanzleben
(52.0609°N, 11.4408°E)
Time: 03:54:44
(UTC+00:00)

Cosmos 1269 Rocket - Pass Details

Date: 18 September 2020
Orbit: 772 x 780 km, 74.1° (Epoch: 22 October)

Event Time Altitude Azimuth Distance (km) Brightness Sun altitude
Rises 19:32:17 0° 335° (NNW) 3,275 8.2 -20.0°
Reaches altitude 10° 19:34:42 10° 338° (NNW) 2,344 7.3 -20.3°
Maximum altitude 19:40:01 70° 62° (ENE) 831 4.0 -21.0°
Enters shadow 19:41:30 47° 130° (SE) 1,033 4.2 -21.2°
